Location: Lancaster
(34.6980°N, 118.1360°W)
Time: 07:34:45
(UTC-07:00)

X-37B - Visible Passes

Search period start: 05 October 2022 00:00
Search period end: 15 October 2022 00:00
Orbit: 329 x 342 km, 45.0° (Epoch: 29 September)

Date Brightness Start Highest point End Pass type
(mag) Time Alt. Az. Time Alt. Az. Time Alt. Az.
05 Oct 1.7 05:25:38 29° N 05:26:20 34° NNE 05:29:01 10° E visible
06 Oct 0.2 05:45:39 32° WNW 05:46:51 78° SSW 05:49:42 10° SE visible
07 Oct 1.8 06:05:48 16° W 06:07:09 22° SW 06:09:28 10° SSE visible
08 Oct 3.5 04:54:50 12° SE 04:54:50 12° SE 04:55:08 10° SE visible
12 Oct 2.2 19:22:20 10° S 19:24:06 17° SE 19:24:06 17° SE visible
13 Oct 0.7 19:41:48 10° SW 19:44:12 52° S 19:44:12 52° S visible
14 Oct 2.2 20:02:21 10° W 20:04:11 30° WNW 20:04:11 30° WNW visible
